Time,TemperatureF,DewpointF,PressureIn,WindDirection,WindDirectionDegrees,WindSpeedMPH,WindSpeedGustMPH,Humidity,HourlyPrecipIn,Conditions,Clouds,dailyrainin,SoftwareType,DateUTC
2013-02-16 00:10:00,44.5,32.3,29.93,NNW,332,6.0,16.0,62,0.00,OVC,OVC,0.00,WeatherDisplay:10.31,2013-02-16 05:10:00,
2013-02-16 00:20:00,43.9,32.8,29.94,NW,318,9.0,15.0,65,0.00,-RA,-RA,0.00,WeatherDisplay:10.31,2013-02-16 05:20:00,
2013-02-16 00:30:00,43.3,33.4,29.94,NW,317,9.0,17.0,68,0.00,-RA,-RA,0.00,WeatherDisplay:10.31,2013-02-16 05:30:00,
2013-02-16 00:40:00,42.6,33.5,29.94,NNW,328,9.0,15.0,70,0.00,-RA,-RA,0.00,WeatherDisplay:10.31,2013-02-16 05:40:00,
2013-02-16 00:50:00,42.1,33.7,29.94,NW,320,8.0,13.0,72,0.00,-RA,-RA,0.00,WeatherDisplay:10.31,2013-02-16 05:50:00,
2013-02-16 01:00:00,41.7,33.7,29.94,NW,323,6.0,13.0,73,0.00,-RA,-RA,0.00,WeatherDisplay:10.31,2013-02-16 06:00:00,
2013-02-16 01:10:00,41.3,34.0,29.95,NW,326,7.0,14.0,75,0.00,-RA,-RA,0.00,WeatherDisplay:10.31,2013-02-16 06:10:00,
2013-02-16 01:20:00,40.9,34.2,29.95,NW,320,7.0,15.0,77,0.00,-RA,-RA,0.00,WeatherDisplay:10.31,2013-02-16 06:20:00,
2013-02-16 01:30:00,40.6,34.0,29.94,NNW,340,7.0,13.0,77,0.00,OVC,OVC,0.00,WeatherDisplay:10.31,2013-02-16 06:30:00,
2013-02-16 01:40:00,40.2,33.9,29.94,NNW,336,10.0,15.0,78,0.00,OVC,OVC,0.00,WeatherDisplay:10.31,2013-02-16 06:40:00,
2013-02-16 01:50:00,39.8,33.8,29.93,NNW,345,10.0,17.0,79,0.00,OVC,OVC,0.00,WeatherDisplay:10.31,2013-02-16 06:50:00,
2013-02-16 02:00:00,39.5,33.9,29.94,NNW,340,8.0,14.0,80,0.00,OVC,OVC,0.00,WeatherDisplay:10.31,2013-02-16 07:00:00,
2013-02-16 02:10:00,39.2,33.9,29.93,NNW,345,6.0,15.0,81,0.00,-RA,-RA,0.00,WeatherDisplay:10.31,2013-02-16 07:10:00,
2013-02-16 02:20:00,38.9,33.9,29.94,NNW,335,5.0,13.0,82,0.00,-RA,-RA,0.00,WeatherDisplay:10.31,2013-02-16 07:20:00,
2013-02-16 02:30:00,38.6,34.2,29.94,NNW,336,5.0,12.0,84,0.00,-RA,-RA,0.00,WeatherDisplay:10.31,2013-02-16 07:30:00,
2013-02-16 02:40:00,38.3,34.2,29.93,NNW,337,7.0,14.0,85,0.00,-RA,-RA,0.00,WeatherDisplay:10.31,2013-02-16 07:40:00,
2013-02-16 02:50:00,38.0,34.2,29.92,NNW,343,2.0,12.0,86,0.00,-RA,-RA,0.00,WeatherDisplay:10.31,2013-02-16 07:50:00,
2013-02-16 03:00:00,37.7,34.2,29.92,NNW,343,6.0,10.0,87,0.00,-RA,-RA,0.00,WeatherDisplay:10.31,2013-02-16 08:00:00,
2013-02-16 03:10:00,37.6,34.4,29.92,North,1,5.0,12.0,88,0.00,-RA,-RA,0.00,WeatherDisplay:10.31,2013-02-16 08:10:00,
2013-02-16 03:20:00,37.3,34.0,29.93,North,355,7.0,13.0,88,0.00,-RA,-RA,0.00,WeatherDisplay:10.31,2013-02-16 08:20:00,
2013-02-16 03:30:00,37.1,33.9,29.92,North,357,8.0,12.0,88,0.00,-RA,-RA,0.00,WeatherDisplay:10.31,2013-02-16 08:30:00,
2013-02-16 03:40:00,36.8,33.6,29.92,North,359,8.0,12.0,88,0.00,-RA,-RA,0.00,WeatherDisplay:10.31,2013-02-16 08:40:00,
2013-02-16 03:50:00,36.7,33.8,29.92,North,1,6.0,9.0,89,0.00,-RA,-RA,0.00,WeatherDisplay:10.31,2013-02-16 08:50:00,
2013-02-16 04:00:00,36.5,33.6,29.92,NNE,23,5.0,10.0,89,0.00,-RA,-RA,0.00,WeatherDisplay:10.31,2013-02-16 09:00:00,
2013-02-16 04:10:00,36.4,33.8,29.91,North,10,2.0,12.0,90,0.00,-RA,-RA,0.00,WeatherDisplay:10.31,2013-02-16 09:10:00,
2013-02-16 04:20:00,36.2,33.6,29.91,NNE,17,3.0,12.0,90,0.00,-RA,-RA,0.00,WeatherDisplay:10.31,2013-02-16 09:20:00,
2013-02-16 04:30:00,36.0,33.4,29.91,NNE,12,6.0,12.0,90,0.00,-RA,-RA,0.00,WeatherDisplay:10.31,2013-02-16 09:30:00,
2013-02-16 04:40:00,35.8,33.2,29.91,NNE,12,6.0,12.0,90,0.00,-RA,-RA,0.00,WeatherDisplay:10.31,2013-02-16 09:40:00,
2013-02-16 04:50:00,35.7,33.1,29.91,NNE,17,5.0,10.0,90,0.00,-RA,-RA,0.00,WeatherDisplay:10.31,2013-02-16 09:50:00,
2013-02-16 05:00:00,35.7,33.1,29.92,North,1,6.0,9.0,90,0.00,-RA,-RA,0.00,WeatherDisplay:10.31,2013-02-16 10:00:00,
2013-02-16 05:10:00,35.5,32.9,29.92,North,6,7.0,12.0,90,0.00,-RA,-RA,0.00,WeatherDisplay:10.31,2013-02-16 10:10:00,
2013-02-16 05:20:00,35.5,32.9,29.92,North,6,3.0,10.0,90,0.00,-RA,-RA,0.00,WeatherDisplay:10.31,2013-02-16 10:20:00,
2013-02-16 05:30:00,35.4,32.8,29.93,NNW,348,2.0,9.0,90,0.00,-RA,-RA,0.00,WeatherDisplay:10.31,2013-02-16 10:30:00,
2013-02-16 05:40:00,35.3,32.7,29.93,North,1,6.0,9.0,90,0.00,-RA,-RA,0.00,WeatherDisplay:10.31,2013-02-16 10:40:00,
2013-02-16 05:50:00,35.2,32.6,29.92,North,1,3.0,12.0,90,0.00,-RA,-RA,0.00,WeatherDisplay:10.31,2013-02-16 10:50:00,
2013-02-16 06:00:00,35.1,32.4,29.92,North,6,6.0,12.0,90,0.00,-RA,-RA,0.00,WeatherDisplay:10.31,2013-02-16 11:00:00,
2013-02-16 06:10:00,35.0,32.4,29.93,North,9,3.0,9.0,90,0.00,-RA,-RA,0.00,WeatherDisplay:10.31,2013-02-16 11:10:00,
2013-02-16 06:20:00,35.0,32.1,29.93,North,9,8.0,10.0,89,0.00,-SN,-SN,0.00,WeatherDisplay:10.31,2013-02-16 11:20:00,
2013-02-16 06:30:00,35.0,32.1,29.92,NNE,12,5.0,12.0,89,0.00,-SN,-SN,0.00,WeatherDisplay:10.31,2013-02-16 11:30:00,
2013-02-16 06:40:00,35.0,32.4,29.93,NNE,17,6.0,10.0,90,0.00,-SN,-SN,0.00,WeatherDisplay:10.31,2013-02-16 11:40:00,
2013-02-16 06:50:00,34.9,32.0,29.93,North,359,3.0,9.0,89,0.00,-SN,-SN,0.00,WeatherDisplay:10.31,2013-02-16 11:50:00,
2013-02-16 07:00:00,34.9,32.0,29.93,North,11,6.0,12.0,89,0.00,-SN,-SN,0.00,WeatherDisplay:10.31,2013-02-16 12:00:00,
2013-02-16 07:10:00,34.9,31.7,29.93,NNE,18,8.0,12.0,88,0.00,-SN,-SN,0.00,WeatherDisplay:10.31,2013-02-16 12:10:00,
2013-02-16 07:20:00,34.9,31.4,29.94,North,3,6.0,10.0,87,0.00,-SN,-SN,0.00,WeatherDisplay:10.31,2013-02-16 12:20:00,
2013-02-16 07:30:00,34.9,31.4,29.93,North,7,6.0,9.0,87,0.00,-SN,-SN,0.00,WeatherDisplay:10.31,2013-02-16 12:30:00,
2013-02-16 07:40:00,35.0,31.2,29.93,NNE,20,8.0,12.0,86,0.00,-SN,-SN,0.00,WeatherDisplay:10.31,2013-02-16 12:40:00,
2013-02-16 07:50:00,35.0,31.2,29.94,North,11,6.0,12.0,86,0.00,-SN,-SN,0.00,WeatherDisplay:10.31,2013-02-16 12:50:00,
2013-02-16 08:00:00,35.0,31.2,29.94,North,8,6.0,10.0,86,0.00,-SN,-SN,0.00,WeatherDisplay:10.31,2013-02-16 13:00:00,
2013-02-16 08:10:00,35.0,30.9,29.93,NNE,20,5.0,10.0,85,0.00,-SN,-SN,0.00,WeatherDisplay:10.31,2013-02-16 13:10:00,
2013-02-16 08:20:00,35.1,31.1,29.94,NNE,17,5.0,10.0,85,0.00,OVC,OVC,0.00,WeatherDisplay:10.31,2013-02-16 13:20:00,
2013-02-16 08:30:00,35.5,31.1,29.93,North,7,7.0,12.0,84,0.00,OVC,OVC,0.00,WeatherDisplay:10.31,2013-02-16 13:30:00,
2013-02-16 08:40:00,35.6,30.9,29.93,North,3,5.0,12.0,83,0.00,OVC,OVC,0.00,WeatherDisplay:10.31,2013-02-16 13:40:00,
2013-02-16 08:50:00,35.7,30.4,29.93,NNE,14,7.0,13.0,81,0.00,OVC,OVC,0.00,WeatherDisplay:10.31,2013-02-16 13:50:00,
2013-02-16 09:00:00,35.5,29.9,29.93,North,1,8.0,16.0,80,0.00,OVC,OVC,0.00,WeatherDisplay:10.31,2013-02-16 14:00:00,
2013-02-16 09:10:00,35.2,29.4,29.93,North,4,7.0,15.0,79,0.00,OVC,OVC,0.00,WeatherDisplay:10.31,2013-02-16 14:10:00,
2013-02-16 09:20:00,35.2,29.0,29.93,NNW,343,10.0,14.0,78,0.00,-SN,-SN,0.00,WeatherDisplay:10.31,2013-02-16 14:20:00,
2013-02-16 09:30:00,35.2,29.3,29.92,North,353,6.0,14.0,79,0.00,-SN,-SN,0.00,WeatherDisplay:10.31,2013-02-16 14:30:00,
2013-02-16 09:40:00,35.5,29.0,29.92,North,11,8.0,13.0,77,0.00,-SN,-SN,0.00,WeatherDisplay:10.31,2013-02-16 14:40:00,
2013-02-16 09:50:00,35.6,28.4,29.92,North,354,6.0,14.0,75,0.00,-SN,-SN,0.00,WeatherDisplay:10.31,2013-02-16 14:50:00,
2013-02-16 10:00:00,35.7,27.9,29.92,North,9,5.0,13.0,73,0.00,-SN,-SN,0.00,WeatherDisplay:10.31,2013-02-16 15:00:00,
2013-02-16 10:10:00,36.0,27.8,29.92,NNE,19,9.0,12.0,72,0.00,-SN,-SN,0.00,WeatherDisplay:10.31,2013-02-16 15:10:00,
2013-02-16 10:20:00,36.0,27.8,29.93,NNE,18,7.0,12.0,72,0.00,-SN,-SN,0.00,WeatherDisplay:10.31,2013-02-16 15:20:00,
2013-02-16 10:30:00,36.2,28.0,29.92,North,9,5.0,14.0,72,0.00,-SN,-SN,0.00,WeatherDisplay:10.31,2013-02-16 15:30:00,
2013-02-16 10:40:00,36.1,27.6,29.92,North,358,7.0,16.0,71,0.00,-SN,-SN,0.00,WeatherDisplay:10.31,2013-02-16 15:40:00,
2013-02-16 10:50:00,36.3,28.1,29.92,North,357,5.0,12.0,72,0.00,-SN,-SN,0.00,WeatherDisplay:10.31,2013-02-16 15:50:00,
2013-02-16 11:00:00,36.2,27.7,29.92,NNE,14,9.0,16.0,71,0.00,-SN,-SN,0.00,WeatherDisplay:10.31,2013-02-16 16:00:00,
2013-02-16 11:10:00,36.2,27.7,29.92,North,360,5.0,14.0,71,0.00,-SN,-SN,0.00,WeatherDisplay:10.31,2013-02-16 16:10:00,
2013-02-16 11:20:00,36.2,27.4,29.92,NNE,15,7.0,13.0,70,0.00,OVC,OVC,0.00,WeatherDisplay:10.31,2013-02-16 16:20:00,
2013-02-16 11:30:00,36.2,27.4,29.91,NNE,16,3.0,14.0,70,0.00,OVC,OVC,0.00,WeatherDisplay:10.31,2013-02-16 16:30:00,
2013-02-16 11:40:00,36.4,26.8,29.91,North,355,7.0,12.0,68,0.00,OVC,OVC,0.00,WeatherDisplay:10.31,2013-02-16 16:40:00,
2013-02-16 11:50:00,36.4,26.8,29.91,North,353,6.0,14.0,68,0.00,OVC,OVC,0.00,WeatherDisplay:10.31,2013-02-16 16:50:00,
2013-02-16 12:00:00,36.4,27.2,29.90,NNE,15,8.0,15.0,69,0.00,OVC,OVC,0.00,WeatherDisplay:10.31,2013-02-16 17:00:00,
2013-02-16 12:10:00,37.0,27.4,29.90,North,356,6.0,14.0,68,0.00,OVC,OVC,0.00,WeatherDisplay:10.31,2013-02-16 17:10:00,
2013-02-16 12:20:00,37.7,27.0,29.89,North,359,6.0,12.0,65,0.00,OVC,OVC,0.00,WeatherDisplay:10.31,2013-02-16 17:20:00,
2013-02-16 12:30:00,37.7,27.0,29.89,NNE,17,5.0,12.0,65,0.00,OVC,OVC,0.00,WeatherDisplay:10.31,2013-02-16 17:30:00,
2013-02-16 12:40:00,37.8,26.7,29.89,NNE,20,5.0,10.0,64,0.00,OVC,OVC,0.00,WeatherDisplay:10.31,2013-02-16 17:40:00,
2013-02-16 12:50:00,38.2,27.1,29.88,NNE,22,2.0,10.0,64,0.00,OVC,OVC,0.00,WeatherDisplay:10.31,2013-02-16 17:50:00,
2013-02-16 13:00:00,39.5,27.2,29.88,NNE,18,6.0,13.0,61,0.00,OVC,OVC,0.00,WeatherDisplay:10.31,2013-02-16 18:00:00,
2013-02-16 13:10:00,39.6,27.2,29.88,NNE,19,8.0,10.0,61,0.00,OVC,OVC,0.00,WeatherDisplay:10.31,2013-02-16 18:10:00,
2013-02-16 13:20:00,39.0,26.7,29.87,North,11,6.0,9.0,61,0.00,OVC,OVC,0.00,WeatherDisplay:10.31,2013-02-16 18:20:00,
2013-02-16 13:30:00,39.5,26.8,29.87,North,8,7.0,12.0,60,0.00,OVC,OVC,0.00,WeatherDisplay:10.31,2013-02-16 18:30:00,
2013-02-16 13:40:00,39.6,27.2,29.87,North,11,8.0,12.0,61,0.00,OVC,OVC,0.00,WeatherDisplay:10.31,2013-02-16 18:40:00,
2013-02-16 13:50:00,39.5,26.3,29.86,North,356,7.0,12.0,59,0.00,OVC,OVC,0.00,WeatherDisplay:10.31,2013-02-16 18:50:00,
2013-02-16 14:00:00,39.3,26.2,29.86,North,354,8.0,16.0,59,0.00,OVC,OVC,0.00,WeatherDisplay:10.31,2013-02-16 19:00:00,
2013-02-16 14:10:00,39.3,26.2,29.86,North,357,3.0,13.0,59,0.00,BKN,BKN,0.00,WeatherDisplay:10.31,2013-02-16 19:10:00,
2013-02-16 14:20:00,39.2,25.6,29.85,North,4,3.0,15.0,58,0.00,BKN,BKN,0.00,WeatherDisplay:10.31,2013-02-16 19:20:00,
2013-02-16 14:30:00,40.0,26.4,29.84,North,6,8.0,13.0,58,0.00,BKN,BKN,0.00,WeatherDisplay:10.31,2013-02-16 19:30:00,
2013-02-16 14:40:00,39.9,25.9,29.84,North,2,6.0,13.0,57,0.00,BKN,BKN,0.00,WeatherDisplay:10.31,2013-02-16 19:40:00,
2013-02-16 14:50:00,40.2,25.7,29.84,North,2,6.0,12.0,56,0.00,BKN,BKN,0.00,WeatherDisplay:10.31,2013-02-16 19:50:00,
2013-02-16 15:00:00,39.8,25.8,29.83,NNW,337,5.0,13.0,57,0.00,BKN,BKN,0.00,WeatherDisplay:10.31,2013-02-16 20:00:00,
2013-02-16 15:10:00,40.3,25.0,29.83,NNW,343,3.0,10.0,54,0.00,BKN,BKN,0.00,WeatherDisplay:10.31,2013-02-16 20:10:00,
2013-02-16 15:20:00,40.8,25.8,29.83,North,359,5.0,9.0,55,0.00,BKN,BKN,0.00,WeatherDisplay:10.31,2013-02-16 20:20:00,
2013-02-16 15:30:00,39.9,25.0,29.84,North,8,5.0,9.0,55,0.00,BKN,BKN,0.00,WeatherDisplay:10.31,2013-02-16 20:30:00,
2013-02-16 15:40:00,39.3,25.3,29.84,NNW,335,6.0,9.0,57,0.00,BKN,BKN,0.00,WeatherDisplay:10.31,2013-02-16 20:40:00,
2013-02-16 15:50:00,39.1,24.7,29.84,North,353,6.0,12.0,56,0.00,BKN,BKN,0.00,WeatherDisplay:10.31,2013-02-16 20:50:00,
2013-02-16 16:00:00,38.9,25.8,29.84,NNW,334,6.0,8.0,59,0.00,BKN,BKN,0.00,WeatherDisplay:10.31,2013-02-16 21:00:00,
2013-02-16 16:10:00,38.4,25.3,29.83,NW,326,6.0,10.0,59,0.00,BKN,BKN,0.00,WeatherDisplay:10.31,2013-02-16 21:10:00,
2013-02-16 16:20:00,38.1,25.0,29.83,NNW,331,7.0,14.0,59,0.00,OVC,OVC,0.00,WeatherDisplay:10.31,2013-02-16 21:20:00,
2013-02-16 16:30:00,37.7,24.6,29.83,NNW,339,5.0,14.0,59,0.00,OVC,OVC,0.00,WeatherDisplay:10.31,2013-02-16 21:30:00,
2013-02-16 16:40:00,37.5,24.5,29.83,NNW,338,6.0,12.0,59,0.00,OVC,OVC,0.00,WeatherDisplay:10.31,2013-02-16 21:40:00,
2013-02-16 16:50:00,37.3,24.3,29.83,NNW,344,7.0,12.0,59,0.00,OVC,OVC,0.00,WeatherDisplay:10.31,2013-02-16 21:50:00,
2013-02-16 17:00:00,37.2,24.2,29.82,North,350,6.0,12.0,59,0.00,OVC,OVC,0.00,WeatherDisplay:10.31,2013-02-16 22:00:00,
2013-02-16 17:10:00,37.1,23.7,29.82,NNW,347,3.0,13.0,58,0.00,OVC,OVC,0.00,WeatherDisplay:10.31,2013-02-16 22:10:00,
2013-02-16 17:20:00,36.9,23.9,29.82,NNW,344,10.0,16.0,59,0.00,OVC,OVC,0.00,WeatherDisplay:10.31,2013-02-16 22:20:00,
2013-02-16 17:30:00,36.6,23.6,29.82,NNW,331,5.0,14.0,59,0.00,OVC,OVC,0.00,WeatherDisplay:10.31,2013-02-16 22:30:00,
2013-02-16 17:40:00,36.5,23.9,29.82,NNW,336,5.0,14.0,60,0.00,OVC,OVC,0.00,WeatherDisplay:10.31,2013-02-16 22:40:00,
2013-02-16 17:50:00,36.4,23.8,29.82,NNW,344,5.0,15.0,60,0.00,OVC,OVC,0.00,WeatherDisplay:10.31,2013-02-16 22:50:00,
2013-02-16 18:00:00,36.3,23.7,29.81,NNW,337,6.0,16.0,60,0.00,OVC,OVC,0.00,WeatherDisplay:10.31,2013-02-16 23:00:00,
2013-02-16 18:10:00,36.2,23.6,29.81,NNW,339,8.0,14.0,60,0.00,OVC,OVC,0.00,WeatherDisplay:10.31,2013-02-16 23:10:00,
2013-02-16 18:20:00,36.1,23.5,29.81,NNW,342,8.0,15.0,60,0.00,OVC,OVC,0.00,WeatherDisplay:10.31,2013-02-16 23:20:00,
2013-02-16 18:30:00,36.1,23.5,29.80,North,351,6.0,13.0,60,0.00,OVC,OVC,0.00,WeatherDisplay:10.31,2013-02-16 23:30:00,
2013-02-16 18:40:00,36.0,23.8,29.81,NNW,339,6.0,13.0,61,0.00,OVC,OVC,0.00,WeatherDisplay:10.31,2013-02-16 23:40:00,
2013-02-16 18:50:00,35.8,23.7,29.81,NNW,347,6.0,12.0,61,0.00,OVC,OVC,0.00,WeatherDisplay:10.31,2013-02-16 23:50:00,
2013-02-16 19:00:00,35.7,23.6,29.81,NNW,337,7.0,10.0,61,0.00,OVC,OVC,0.00,WeatherDisplay:10.31,2013-02-17 00:00:00,
2013-02-16 19:10:00,35.6,22.3,29.81,North,354,7.0,15.0,58,0.00,OVC,OVC,0.00,WeatherDisplay:10.31,2013-02-17 00:10:00,
2013-02-16 19:20:00,35.5,21.8,29.81,North,358,6.0,13.0,57,0.00,OVC,OVC,0.00,WeatherDisplay:10.31,2013-02-17 00:20:00,
2013-02-16 19:30:00,35.5,22.2,29.81,North,9,6.0,12.0,58,0.00,OVC,OVC,0.00,WeatherDisplay:10.31,2013-02-17 00:30:00,
2013-02-16 19:40:00,35.2,21.9,29.81,North,10,9.0,13.0,58,0.00,OVC,OVC,0.00,WeatherDisplay:10.31,2013-02-17 00:40:00,
2013-02-16 19:50:00,35.0,21.7,29.81,NNE,12,12.0,15.0,58,0.00,OVC,OVC,0.00,WeatherDisplay:10.31,2013-02-17 00:50:00,
2013-02-16 20:00:00,34.5,22.4,29.81,North,7,10.0,16.0,61,0.00,OVC,OVC,0.00,WeatherDisplay:10.31,2013-02-17 01:00:00,
2013-02-16 20:10:00,34.1,22.8,29.81,NNE,13,5.0,18.0,63,0.00,OVC,OVC,0.00,WeatherDisplay:10.31,2013-02-17 01:10:00,
2013-02-16 20:20:00,33.5,23.0,29.80,NNE,18,14.0,20.0,65,0.00,OVC,OVC,0.00,WeatherDisplay:10.31,2013-02-17 01:20:00,
2013-02-16 20:30:00,32.4,23.7,29.80,NNE,13,13.0,21.0,70,0.00,OVC,OVC,0.00,WeatherDisplay:10.31,2013-02-17 01:30:00,
2013-02-16 20:40:00,31.7,24.7,29.81,North,1,7.0,20.0,75,0.00,OVC,OVC,0.00,WeatherDisplay:10.31,2013-02-17 01:40:00,
2013-02-16 20:50:00,31.3,25.2,29.81,NNE,20,5.0,14.0,78,0.00,OVC,OVC,0.00,WeatherDisplay:10.31,2013-02-17 01:50:00,
2013-02-16 21:00:00,30.8,25.3,29.80,NNE,19,9.0,20.0,80,0.00,OVC,OVC,0.00,WeatherDisplay:10.31,2013-02-17 02:00:00,
2013-02-16 21:10:00,30.5,25.0,29.80,NNE,22,5.0,15.0,80,0.00,OVC,OVC,0.00,WeatherDisplay:10.31,2013-02-17 02:10:00,
2013-02-16 21:20:00,30.6,25.1,29.79,NNE,20,7.0,12.0,80,0.00,OVC,OVC,0.00,WeatherDisplay:10.31,2013-02-17 02:20:00,
2013-02-16 21:30:00,30.7,24.7,29.79,NE,34,7.0,14.0,78,0.00,OVC,OVC,0.00,WeatherDisplay:10.31,2013-02-17 02:30:00,
2013-02-16 21:40:00,30.9,24.5,29.78,NNE,30,6.0,12.0,77,0.00,OVC,OVC,0.00,WeatherDisplay:10.31,2013-02-17 02:40:00,
2013-02-16 21:50:00,30.8,24.1,29.78,NNE,30,7.0,12.0,76,0.00,OVC,OVC,0.00,WeatherDisplay:10.31,2013-02-17 02:50:00,
2013-02-16 22:00:00,30.9,23.9,29.78,NNE,25,5.0,10.0,75,0.00,OVC,OVC,0.00,WeatherDisplay:10.31,2013-02-17 03:00:00,
2013-02-16 22:10:00,31.0,23.6,29.77,NNE,29,6.0,9.0,74,0.00,OVC,OVC,0.00,WeatherDisplay:10.31,2013-02-17 03:10:00,
2013-02-16 22:20:00,31.1,23.1,29.76,NNE,24,6.0,9.0,72,0.00,OVC,OVC,0.00,WeatherDisplay:10.31,2013-02-17 03:20:00,
2013-02-16 22:30:00,31.4,19.9,29.75,North,0,10.0,16.0,62,0.00,OVC,OVC,0.00,WeatherDisplay:10.31,2013-02-17 03:30:00,
2013-02-16 22:40:00,31.7,18.6,29.75,North,357,8.0,15.0,58,0.00,OVC,OVC,0.00,WeatherDisplay:10.31,2013-02-17 03:40:00,
2013-02-16 22:50:00,31.6,18.1,29.74,North,8,8.0,23.0,57,0.00,OVC,OVC,0.00,WeatherDisplay:10.31,2013-02-17 03:50:00,
2013-02-16 23:00:00,31.5,17.6,29.73,North,10,10.0,20.0,56,0.00,OVC,OVC,0.00,WeatherDisplay:10.31,2013-02-17 04:00:00,
2013-02-16 23:10:00,31.6,17.7,29.73,North,2,14.0,20.0,56,0.00,OVC,OVC,0.00,WeatherDisplay:10.31,2013-02-17 04:10:00,
2013-02-16 23:20:00,31.5,17.6,29.72,North,10,12.0,21.0,56,0.00,OVC,OVC,0.00,WeatherDisplay:10.31,2013-02-17 04:20:00,
2013-02-16 23:30:00,31.4,17.9,29.71,NNE,12,12.0,24.0,57,0.00,OVC,OVC,0.00,WeatherDisplay:10.31,2013-02-17 04:30:00,
2013-02-16 23:40:00,31.3,17.8,29.71,North,356,12.0,21.0,57,0.00,OVC,OVC,0.00,WeatherDisplay:10.31,2013-02-17 04:40:00,
2013-02-16 23:50:00,31.0,18.3,29.70,North,7,7.0,20.0,59,0.00,OVC,OVC,0.00,WeatherDisplay:10.31,2013-02-17 04:50:00,